Clines Corners, NM

4:56 AM MST on February 13, 2016 (GMT -0700)
Clines Corner

Weather History for KCQC - October, 2013

Change the Weather History Date:

Friday, October 4, 2013

  Actual Average (KSAF) Record (KSAF)
Temperature  
Mean Temperature 49 °F -  
Max Temperature 61 °F 77 °F 80 °F (2007)
Min Temperature 39 °F 34 °F 33 °F (1980)
Degree Days  
Heating Degree Days 16    
Moisture  
Dew Point 20 °F    
Average Humidity 31    
Maximum Humidity 50    
Minimum Humidity 18    
Precipitation  
Precipitation 0.00 in - - ()
Sea Level Pressure  
Sea Level Pressure 29.85 in    
Wind  
Wind Speed 20 mph (WNW)    
Max Wind Speed 34 mph    
Max Gust Speed 45 mph    
Visibility 10 miles    
Events      
Averages and records for this station are not official NWS values.
T = Trace of Precipitation, MM = Missing Value Source: NWS Daily Summary

Daily Weather History Graph

Daily Weather History Graph

Search for Another Location

Airport or City:

Trip Planner

Search our weather history database for the weather conditions in past years. The results will help you decide how hot, cold, wet, or windy it might be!

Date:

Astronomy

Oct. 04, 2013 Rise Set
Actual Time 6:59 AM MDT 6:41 PM MDT
Civil Twilight 6:34 AM MDT 7:07 PM MDT
Nautical Twilight 6:05 AM MDT 7:36 PM MDT
Astronomical Twilight 5:35 AM MDT 8:05 PM MDT
Moon 6:37 AM MDT (10/4) 6:27 PM MDT (10/4)
Length of Visible Light 12h 32m
Length of Day
11h 42m
Waning Crescent, 0% of the Moon is Illuminated
Oct 4
Waning Crescent
Oct 4
New
Oct 11
First Quarter
Oct 18
Full
Oct 26
Last Quarter

Hourly Weather History & Observations

Time (MDT) Temp. Windchill Dew Point Humidity Pressure Visibility Wind Dir Wind Speed Gust Speed Precip Events Conditions
12:53 AM 54.0 °F - 26.1 °F 34% 29.70 in 10.0 mi West 20.7 mph - N/A   Clear
1:53 AM 53.1 °F - 27.0 °F 37% 29.70 in 10.0 mi WSW 17.3 mph - N/A   Clear
2:53 AM 52.0 °F - 28.0 °F 40% 29.70 in 10.0 mi WSW 17.3 mph - N/A   Clear
3:53 AM 54.0 °F - 28.9 °F 38% 29.68 in 10.0 mi West 21.9 mph 28.8 mph N/A   Clear
4:53 AM 51.1 °F - 30.0 °F 44% 29.70 in 10.0 mi West 19.6 mph 26.5 mph N/A   Clear
5:53 AM 52.0 °F - 30.0 °F 43% 29.71 in 10.0 mi West 26.5 mph 39.1 mph N/A   Clear
6:53 AM 46.9 °F - 28.0 °F 48% 29.80 in 10.0 mi WNW 17.3 mph - N/A   Clear
7:53 AM 46.0 °F 37.8 °F 28.0 °F 50% 29.81 in 10.0 mi WNW 23.0 mph 29.9 mph N/A   Clear
8:53 AM 50.0 °F - 26.1 °F 39% 29.82 in 10.0 mi WNW 26.5 mph 31.1 mph N/A   Clear
9:53 AM 52.0 °F - 24.1 °F 34% 29.85 in 10.0 mi WNW 20.7 mph - N/A   Clear
10:53 AM 54.0 °F - 25.0 °F 33% 29.86 in 10.0 mi West 21.9 mph 28.8 mph N/A   Clear
11:53 AM 57.0 °F - 26.1 °F 30% 29.85 in 10.0 mi WNW 24.2 mph 31.1 mph N/A   Clear
12:53 PM 57.9 °F - 26.1 °F 30% 29.84 in 10.0 mi West 27.6 mph 42.6 mph N/A   Clear
1:53 PM 59.0 °F - 24.1 °F 26% 29.83 in 10.0 mi WNW 34.5 mph 44.9 mph N/A   Clear
2:53 PM 59.0 °F - 23.0 °F 25% 29.84 in 10.0 mi WNW 21.9 mph 36.8 mph N/A   Clear
3:53 PM 57.0 °F - 15.1 °F 19% 29.85 in 10.0 mi WNW 25.3 mph 33.4 mph N/A   Clear
4:53 PM 55.9 °F - 14.0 °F 19% 29.88 in 10.0 mi NW 21.9 mph 29.9 mph N/A   Clear
5:53 PM 53.1 °F - 10.0 °F 18% 29.91 in 10.0 mi NW 19.6 mph 26.5 mph N/A   Clear
6:53 PM 48.0 °F - 8.1 °F 20% 29.96 in 10.0 mi WNW 13.8 mph - N/A   Clear
7:53 PM 46.0 °F 39.6 °F 8.1 °F 21% 29.98 in 10.0 mi NW 15.0 mph - N/A   Partly Cloudy
8:53 PM 44.1 °F 37.4 °F 7.0 °F 22% 29.99 in 10.0 mi NW 13.8 mph - N/A   Clear
9:53 PM 42.1 °F 34.9 °F 6.1 °F 23% 29.99 in 10.0 mi NW 13.8 mph - N/A   Clear
10:53 PM 39.9 °F 35.8 °F 5.0 °F 23% 30.03 in 10.0 mi NW 5.8 mph - N/A   Partly Cloudy
11:53 PM 39.0 °F 32.3 °F 6.1 °F 26% 30.03 in 10.0 mi NW 10.4 mph - N/A   Mostly Cloudy